SCP
0 0 0 0 0 0 0 0 0 0 0 0 0 0 0 0 0 0 0 0 0 0 0 0 0 0 0 0 0 0 0 0 0 0 0 0 0 0 0 0 0 0 0 0 0 0 0 0 0 0 0 0 0 0
0 0 0 0 0 0 0 0 0 0 0 0 0 0 0 0 0 0 0 0 0 0 0 0 0 0 0 0 0 0 0 0 0 0 0 0 0 0 0 0 0 0 0 0 0 0 0 0 0 0 0 0 0 0
0 0 0 0 0 0 0 0 0 0 0 0 0 0 0 0 0 0 0 0 0 0 0 0 0 0 0 0 0 0 0 0 0 0 0 0 0 0 0 0 0 0 0 0 0 0 0 0 0 0 0 0 0 0
0 0 0 0 0 0 0 0 0 0 0 0 0 0 0 0 0 0 0 0 0 0 0 0 0 0 0 0 0 0 0 0 0 0 0 0 0 0 0 0 0 0 0 0 0 0 0 0 0 0 0 0 0 0
0 0 0 0 0 0 0 0 0 0 0 0 0 0 0 0 0 0 0 0 0 0 0 0 0 0 0 0 0 0 0 0 0 0 0 0 0 0 0 0 0 0 0 0 0 0 0 0 0 0 0 0 0 0
0 0 0 0 0 0 0 0 0 0 0 0 0 0 0 0 0 0 0 0 0 0 0 0 0 0 0 0 0 0 0 0 0 0 0 0 0 0 0 0 0 0 0 0 0 0 0 0 0 0 0 0 0 0
0 0 0 0 0 0 0 0 0 0 0 0 0 0 0 0 0 0 0 0 0 0 0 0 0 0 0 0 0 0 0 0 0 0 0 0 0 0 0 0 0 0 0 0 0 0 0 0 0 0 0 0 0 0
0 0 0 0 0 0 0 0 0 0 0 0 0 0 0 0 0 0 0 0 0 0 0 0 0 0 0 0 0 0 0 0 0 0 0 0 0 0 0 0 0 0 0 0 0 0 0 0 0 0 0 0 0 0
0 0 0 0 0 0 0 0 0 0 0 0 0 0 0 0 0 0 0 0 0 0 0 0 0 0 0 0 0 0 0 0 0 0 0 0 0 0 0 0 0 0 0 0 0 0 0 0 0 0 0 0 0 0
0 0 0 0 0 0 0 0 0 0 0 0 0 0 0 0 0 0 0 0 0 0 0 0 0 0 0 0 0 0 0 0 0 0 0 0 0 0 0 0 0 0 0 0 0 0 0 0 0 0 0 0 0 0
0 0 0 0 0 0 0 0 0 0 0 0 0 0 0 0 0 0 0 0 0 0 0 0 0 0 0 0 0 0 0 0 0 0 0 0 0 0 0 0 0 0 0 0 0 0 0 0 0 0 0 0 0 0
0 0 0 0 0 0 0 0 0 0 0 0 0 0 0 0 0 0 0 0 0 0 0 0 0 0 0 0 0 0 0 0 0 0 0 0 0 0 0 0 0 0 0 0 0 0 0 0 0 0 0 0 0 0
0 0 0 0 0 0 0 0 0 0 0 0 0 0 0 0 0 0 0 0 0 0 0 0 0 0 0 0 0 0 0 0 0 0 0 0 0 0 0 0 0 0 0 0 0 0 0 0 0 0 0 0 0 0
0 0 0 0 0 0 0 0 0 0 0 0 0 0 0 0 0 0 0 0 0 0 0 0 0 0 0 0 0 0 0 0 0 0 0 0 0 0 0 0 0 0 0 0 0 0 0 0 0 0 0 0 0 0
0 0 0 0 0 0 0 0 0 0 0 0 0 0 0 0 0 0 0 0 0 0 0 0 0 0 0 0 0 0 0 0 0 0 0 0 0 0 0 0 0 0 0 0 0 0 0 0 0 0 0 0 0 0
0 0 0 0 0 0 0 0 0 0 0 0 0 0 0 0 0 0 0 0 0 0 0 0 0 0 0 0 0 0 0 0 0 0 0 0 0 0 0 0 0 0 0 0 0 0 0 0 0 0 0 0 0 0
0 0 0 0 0 0 0 0 0 0 0 0 0 0 0 0 0 0 0 0 0 0 0 0 0 0 0 0 0 0 0 0 0 0 0 0 0 0 0 0 0 0 0 0 0 0 0 0 0 0 0 0 0 0
0 0 0 0 0 0 0 0 0 0 0 0 0 0 0 0 0 0 0 0 0 0 0 0 0 0 0 0 0 0 0 0 0 0 0 0 0 0 0 0 0 0 0 0 0 0 0 0 0 0 0 0 0 0
0 0 0 0 0 0 0 0 0 0 0 0 0 0 0 0 0 0 0 0 0 0 0 0 0 0 0 0 0 0 0 0 0 0 0 0 0 0 0 0 0 0 0 0 0 0 0 0 0 0 0 0 0 0
0 0 0 0 0 0 0 0 0 0 0 0 0 0 0 0 0 0 0 0 0 0 0 0 0 0 0 0 0 0 0 0 0 0 0 0 0 0 0 0 0 0 0 0 0 0 0 0 0 0 0 0 0 0
0 0 0 0 0 0 0 0 0 0 0 0 0 0 0 0 0 0 0 0 0 0 0 0 0 0 0 0 0 0 0 0 0 0 0 0 0 0 0 0 0 0 0 0 0 0 0 0 0 0 0 0 0 0
0 0 0 0 0 0 0 0 0 0 0 0 0 0 0 0 0 0 0 0 0 0 0 0 0 0 0 0 0 0 0 0 0 0 0 0 0 0 0 0 0 0 0 0 0 0 0 0 0 0 0 -0 -0 0
0 0 0 0 0 0 0 0 0 0 0 0 0 0 0 0 0 0 0 0 0 0 0 0 0 0 0 0 0 0 0 0 0 0 0 0 0 0 0 0 0 0 0 0 0 0 0 0 0 0 -0 -0 -0 -0
-0 0 0 0 0 0 0 0 0 0 0 0 0 0 0 0 0 0 0 0 0 0 0 0 0 0 0 0 0 0 0 0 0 0 0 0 0 0 0 0 0 0 0 0 0 0 0 0 0 -0 -0 -0 0 0
-0 -0 -0 0 0 0 0 0 0 0 0 0 0 0 0 0 0 0 0 0 0 0 0 0 0 0 0 0 0 0 0 0 0 0 0 0 0 0 0 0 0 0 0 0 0 0 0 0 -0 -0 -0 -0 0 0
-0 0 0 0 0 0 0 0 0 0 0 0 0 0 0 0 0 0 0 0 0 0 0 0 0 0 0 0 0 0 0 0 0 0 0 0 0 0 0 0 0 0 0 0 0 0 0 0 -0 0 0 0 0 0
-0 0 0 0 0 0 0 0 0 0 0 0 0 0 0 0 0 0 0 0 0 0 0 0 0 0 0 0 0 0 0 0 0 0 0 0 0 0 0 0 0 0 0 0 0 0 0 0 0 0 0 0 0 0
0 0 0 0 0 0 0 0 0 0 0 0 0 0 0 0 0 0 0 0 0 0 0 0 0 0 0 0 0 0 0 0 0 0 0 0 0 0 0 0 0 0 0 0 0 0 0 0 0 0 0 0 0 0
0 0 0 0 0 0 0 0 0 0 0 0 0 0 0 0 0 0 0 0 0 0 0 0 0 0 0 0 0 0 0 0 0 0 0 0 0 0 0 0 0 0 0 0 0 0 0 0 0 0 0 0 0 0
0 0 0 0 0 0 0 0 0 0 0 0 0 0 0 0 0 0 0 0 0 0 0 0 0 0 0 0 0 0 0 0 0 0 0 0 0 0 0 0 0 0 0 0 0 0 0 0 0 0 0 0 0 0
0 0 0 0 0 0 0 0 0 0 0 0 0 0 0 0 0 0 0 0 0 0 0 0 0 0 0 0 0 0 0 0 0 0 0 0 0 0 0 0 0 0 0 0 0 0 0 0 0 0 0 0 0 0
0 0 0 0 0 0 0 0 0 0 0 0 0 0 0 0 0 0 0 0 0 0 0 0 0 0 0 0 0 0 0 0 0 0 0 0 0 0 0 0 0 0 0 0 0 0 0 0 0 0 0 0 0 0
0 0 0 0 0 0 0 0 0 0 0 0 0 0 0 0 0 0 0 0 0 0 0 0 0 0 0 0 0 0 0 0 0 0 0 0 0 0 0 0 0 0 0 0 0 0 0 0 0 0 0 0 0 0
Wind_Speed_500mb
55 53 47 52 48 48 52 49 52 55 52 50 47 43 38 49 47 46 47 41 42 19 21 22 34 20 22 27 8 19 12 5 4 6 8 8 6 11 1 7 9 13 11 10 3 4 14 6 11 12 9 1 9 28
53 45 40 45 46 49 48 52 50 45 45 51 58 47 44 48 48 41 49 47 54 31 13 28 52 38 34 32 36 47 5 13 22 6 4 5 4 2 8 7 8 4 14 8 13 10 4 21 18 22 26 31 32 38
49 63 60 52 44 43 49 46 45 47 48 47 48 54 49 48 56 57 58 47 44 41 31 50 56 56 54 48 34 24 23 19 18 19 9 6 7 8 9 10 5 11 29 6 6 15 34 63 61 66 65 61 58 57
53 50 48 46 62 55 47 44 45 47 48 55 56 53 51 58 53 55 69 59 53 19 9 26 34 44 54 64 63 59 40 26 30 31 9 7 6 20 10 16 12 22 7 16 18 22 47 59 67 69 70 74 73 68
55 55 52 51 49 43 44 56 47 44 44 49 48 48 50 51 49 47 50 71 61 48 6 16 32 42 35 53 67 74 66 47 23 13 8 10 12 5 7 4 18 48 36 22 24 47 43 49 63 62 56 56 54 52
55 52 52 49 48 46 47 46 45 44 47 52 48 48 49 47 47 44 41 70 73 84 21 10 25 30 38 40 56 63 65 55 43 23 13 14 38 20 9 12 29 58 59 62 52 69 68 72 72 71 65 52 56 63
57 52 50 45 43 47 49 49 48 44 42 43 44 44 48 47 49 52 15 13 41 76 23 6 6 27 44 43 49 47 48 39 39 26 18 25 25 24 11 24 41 54 58 63 73 63 56 62 47 54 57 51 49 47
43 44 46 46 46 47 42 47 48 46 44 42 41 43 43 48 49 61 72 64 20 55 13 6 6 5 36 21 18 38 27 37 32 25 12 15 11 14 12 28 50 63 68 71 76 66 66 64 56 51 49 50 48 44
41 44 46 46 47 46 47 46 43 42 41 39 40 39 39 48 56 59 51 60 62 39 8 6 10 9 34 17 16 23 25 8 18 9 12 14 8 13 18 42 60 67 58 66 55 46 45 44 42 39 38 40 40 39
40 38 38 40 41 41 43 41 38 38 37 36 33 26 18 42 50 34 32 32 48 32 28 7 23 8 27 22 18 17 15 6 7 14 14 11 20 62 62 76 62 55 50 45 38 44 43 39 36 38 39 36 34 34
31 33 35 37 37 36 36 36 35 31 30 34 24 25 24 13 47 31 21 18 15 9 21 20 46 10 24 8 9 22 7 6 7 9 16 7 8 29 72 64 68 67 59 49 41 39 37 34 32 32 32 32 32 33
31 31 30 34 39 40 38 38 37 37 36 29 19 25 26 25 20 16 13 8 10 13 19 10 24 36 22 16 6 13 8 10 11 7 6 7 10 43 44 45 48 47 44 37 33 31 29 28 27 27 27 30 32 33
33 36 37 37 36 32 31 31 34 40 41 44 21 13 13 18 19 14 13 8 8 9 18 22 7 23 15 20 7 9 14 11 14 9 8 9 18 34 35 37 37 33 31 29 26 25 24 23 23 25 27 29 33 35
26 30 34 36 37 38 37 37 38 37 32 20 13 15 14 9 7 6 11 10 14 23 49 40 14 8 15 11 6 7 5 7 11 10 13 8 34 26 29 30 30 28 25 23 22 20 19 20 20 21 26 31 37 40
24 32 38 38 38 37 39 38 38 44 27 12 17 11 12 11 5 8 6 12 17 32 46 16 8 14 5 8 8 7 8 9 12 11 9 15 29 30 30 28 25 22 19 18 16 16 15 16 20 22 28 33 39 42
2 7 16 12 29 30 34 36 39 46 16 19 10 2 7 4 4 2 8 11 21 35 28 13 7 7 10 6 11 12 12 13 9 7 13 21 23 24 23 21 19 17 15 12 10 11 14 19 23 26 27 31 33 36
4 1 12 10 13 16 27 33 31 22 17 12 3 9 12 8 8 8 8 7 27 29 6 6 12 14 6 5 6 7 10 4 5 19 16 18 23 25 24 22 19 16 10 7 8 11 16 20 24 27 27 27 28 27
14 11 9 1 9 8 13 25 15 4 3 5 4 12 9 8 10 11 14 18 19 7 6 8 10 7 9 14 7 5 10 18 19 17 20 22 24 26 25 22 18 11 6 3 8 10 12 14 17 20 23 24 22 19
21 20 16 12 6 4 2 1 3 6 4 5 7 12 12 8 9 10 11 21 21 8 4 5 6 5 4 4 5 6 15 14 19 23 27 28 25 23 20 16 11 7 4 2 0 2 6 10 14 17 20 21 21 20
15 29 26 9 11 6 6 6 6 7 4 5 3 6 10 7 5 8 7 11 15 7 5 4 3 5 5 5 8 8 13 18 29 36 27 27 24 19 16 12 9 8 8 7 6 5 6 9 13 15 16 17 18 19
26 26 20 10 11 8 9 7 10 7 7 7 3 6 6 8 9 9 5 7 5 4 3 7 7 7 10 12 15 20 25 27 22 12 19 29 24 17 13 13 13 13 11 9 4 2 5 9 10 12 13 15 16 16
6 12 13 11 7 8 11 11 9 6 6 6 6 7 8 4 8 8 7 5 8 5 4 3 7 11 11 13 17 19 20 17 12 11 13 16 26 21 18 18 16 12 8 3 1 4 6 7 9 10 11 13 14 16
14 10 8 8 8 9 5 8 6 6 5 1 3 5 5 4 6 5 3 6 5 8 3 2 9 11 12 13 15 16 15 14 16 17 20 22 23 25 22 17 11 6 2 1 4 4 5 5 6 8 10 13 15 16
10 8 12 11 16 4 4 7 6 6 5 5 4 5 3 3 7 1 4 7 15 13 4 7 11 12 12 13 14 16 18 19 21 26 27 24 23 19 13 7 3 2 3 3 3 2 2 3 7 10 12 14 16 17
6 20 14 12 14 9 10 6 7 5 5 5 3 4 4 9 2 5 4 6 19 12 4 7 8 7 8 11 17 21 24 25 24 24 21 15 11 9 6 3 1 2 4 5 4 4 4 7 10 12 14 16 17 19
15 18 11 8 9 7 6 5 7 6 4 4 5 3 7 3 2 6 3 18 13 12 7 7 8 6 11 16 21 23 21 19 16 14 11 5 2 3 4 4 4 4 5 7 8 7 9 13 15 16 17 19 22 27
11 9 14 15 7 4 5 6 3 4 8 7 5 7 5 7 6 4 14 24 18 11 7 14 14 12 17 19 17 15 13 10 7 7 5 2 1 2 4 6 6 6 7 7 8 10 14 17 19 22 25 26 27 30
8 18 5 19 10 10 5 4 6 5 4 9 5 8 5 4 2 15 13 27 21 6 10 16 14 14 15 14 12 10 8 7 4 2 2 2 2 1 1 2 2 3 5 8 11 14 18 22 26 30 34 37 37 36
10 23 12 7 4 10 10 8 4 5 7 6 3 4 4 8 21 22 22 21 16 10 9 11 9 9 8 7 8 8 7 6 6 7 6 6 5 6 6 3 1 6 10 13 17 22 27 33 37 43 47 51 53 55
15 26 11 8 6 7 6 7 3 6 5 6 5 9 14 22 43 46 31 20 14 9 7 5 4 5 6 6 6 4 1 1 2 3 2 4 2 2 6 9 12 16 21 26 30 33 37 42 46 48 53 56 58 60
17 17 7 6 3 6 10 11 6 8 7 8 11 10 9 7 20 52 57 38 16 11 7 4 3 1 1 0 1 1 2 3 3 3 4 5 7 10 15 19 24 29 34 39 44 48 51 54 55 56 57 57 56 56
15 12 6 8 5 9 11 14 5 5 6 6 9 7 7 9 12 36 55 45 29 15 10 8 5 5 4 5 4 2 3 6 6 10 14 18 21 25 29 33 36 40 43 47 50 52 53 55 57 57 58 59 58 56
9 11 7 7 3 5 15 13 3 5 8 7 10 11 11 10 11 35 36 52 54 50 39 28 21 14 9 3 5 9 3 16 25 34 39 43 45 47 48 48 49 51 54 56 57 56 57 58 60 60 60 60 60 59
Wind_Direction_500mb
239 239 243 233 230 229 229 230 232 231 232 234 235 235 237 229 226 216 226 225 208 208 234 213 210 191 171 187 143 145 106 208 165 179 163 203 175 212 216 225 177 156 165 215 174 224 280 142 123 171 219 339 239 202
245 246 243 243 242 240 240 238 227 237 240 236 229 228 237 241 238 233 240 243 217 226 239 219 226 217 214 216 198 168 166 152 173 153 186 146 168 176 169 230 158 257 202 196 174 203 190 209 229 238 275 275 261 253
239 241 239 241 245 246 242 241 239 235 235 241 244 233 233 239 237 232 235 240 229 234 252 242 238 237 227 210 208 185 217 186 192 185 170 201 199 142 179 229 251 231 234 216 282 246 259 268 265 268 277 284 281 280
238 233 227 235 237 238 244 244 243 242 241 240 240 239 242 241 232 239 231 230 230 224 246 260 252 236 239 227 226 218 223 214 223 208 173 202 191 210 215 229 189 215 133 231 255 251 257 265 267 270 273 274 277 279
242 242 239 235 233 235 235 239 245 249 249 250 245 236 239 239 237 240 239 233 229 207 225 241 258 245 238 220 223 223 223 221 211 197 209 214 219 247 225 240 232 230 234 238 250 255 254 267 277 277 267 275 279 282
238 240 240 241 241 238 237 238 240 242 245 246 247 244 242 242 240 241 233 238 240 230 230 220 231 231 226 210 220 219 223 217 209 201 209 224 234 204 216 230 227 237 241 246 253 261 263 272 277 278 277 278 280 285
236 237 239 240 246 247 243 240 240 242 243 243 243 247 240 241 236 228 222 243 221 219 220 203 201 202 202 204 212 217 215 210 213 221 218 223 225 218 244 248 248 253 254 252 258 263 267 270 267 270 271 275 277 274
234 236 238 243 241 245 247 240 238 241 245 249 249 247 248 238 244 238 239 241 242 198 246 200 145 150 181 168 189 202 202 210 206 219 221 220 221 222 249 244 256 257 255 260 265 265 263 267 269 269 273 276 276 273
237 239 238 239 240 239 236 240 239 241 245 250 252 250 250 236 232 239 236 236 243 222 210 218 157 218 173 157 168 175 196 194 205 210 221 191 212 224 224 242 246 250 249 254 259 257 260 263 268 270 271 269 268 268
231 230 236 239 242 240 237 236 236 240 243 245 242 224 227 228 224 231 212 204 200 203 208 192 177 187 169 162 175 159 189 208 196 219 179 209 231 237 246 252 259 263 260 258 258 260 264 263 264 269 270 269 264 259
219 225 231 232 236 234 234 234 234 234 235 228 219 222 222 214 188 191 207 198 171 195 182 192 200 146 176 146 177 197 173 191 204 244 174 215 238 229 243 249 255 259 259 258 259 261 267 272 272 266 266 261 258 261
234 236 234 230 226 230 229 229 227 224 218 220 222 221 193 196 220 201 176 187 190 184 176 170 192 195 168 161 156 179 193 187 219 137 146 240 222 236 238 232 232 240 247 254 258 260 260 258 257 254 252 256 261 265
232 235 238 230 222 222 228 229 231 225 226 230 228 223 205 181 230 189 177 147 169 158 158 154 152 155 150 180 180 179 206 207 109 181 221 221 195 218 216 222 227 234 239 243 247 251 253 250 250 253 258 264 269 275
239 238 234 229 228 230 229 228 231 223 214 215 210 198 213 189 218 173 179 177 167 166 170 166 132 156 165 180 180 215 159 126 196 209 222 223 216 213 210 214 222 229 229 235 235 233 237 245 253 265 273 279 285 288
244 245 238 236 235 236 233 233 229 217 225 241 186 226 194 152 124 141 140 126 152 178 148 139 118 149 166 208 188 106 177 217 205 216 212 177 181 192 202 211 213 215 219 222 223 231 244 269 283 289 294 297 297 297
197 260 152 153 200 224 231 231 223 219 229 203 247 282 353 65 87 95 168 140 156 155 141 118 140 184 214 202 175 194 170 213 228 203 152 158 162 175 187 188 191 192 194 203 236 272 295 304 307 312 316 312 310 309
30 171 341 280 242 255 239 222 215 217 218 166 137 162 131 112 111 127 139 163 160 162 161 156 189 199 130 212 214 181 205 216 109 129 144 158 164 166 168 164 166 171 184 225 274 300 316 321 324 325 325 326 325 323
18 7 343 85 253 250 223 198 214 198 124 75 166 149 143 124 119 148 164 166 166 218 171 188 119 192 199 183 209 196 123 125 121 143 143 146 157 161 160 156 159 167 184 272 308 323 333 335 337 340 343 342 338 334
313 307 306 305 251 225 146 69 155 110 84 31 89 124 121 136 141 160 183 185 190 191 294 230 197 195 199 55 32 59 142 147 156 147 146 149 156 159 157 154 161 171 175 180 313 351 12 9 359 354 353 350 348 341
232 259 275 271 207 193 111 61 85 76 82 92 100 90 103 116 94 93 113 143 162 154 246 235 17 39 48 115 118 135 160 150 147 139 150 161 163 167 165 161 160 155 154 145 122 73 29 11 7 359 354 354 353 349
220 230 264 202 163 116 96 78 59 85 102 100 109 68 52 71 54 50 54 117 138 70 72 52 64 91 117 127 132 128 131 140 139 157 179 173 172 171 164 158 155 150 140 125 104 36 355 352 345 344 349 353 353 352
192 156 146 146 99 82 80 62 96 92 86 80 43 54 47 40 33 13 355 26 60 54 41 65 126 127 119 121 126 133 131 134 141 142 150 158 166 162 159 149 143 141 139 136 329 330 330 330 338 345 353 355 355 357
126 124 82 68 93 61 41 68 69 50 90 167 101 67 22 37 357 9 68 52 57 15 342 155 159 149 144 138 131 129 129 129 133 133 132 139 137 132 136 138 139 141 139 355 313 312 315 330 344 355 351 350 351 352
85 58 39 44 37 63 59 43 54 77 83 44 62 103 53 340 328 129 72 32 4 2 36 137 140 130 136 135 133 135 136 133 135 131 131 134 128 125 127 134 148 218 266 268 282 270 292 331 339 339 341 347 350 354
82 11 20 14 21 33 39 24 8 43 65 354 47 91 351 343 56 62 54 349 355 3 42 136 133 137 158 155 142 136 137 139 136 129 124 125 126 130 146 172 220 274 272 249 245 255 297 322 328 332 337 340 342 344
67 8 41 339 4 50 346 49 31 23 2 62 43 321 348 322 76 57 1 344 354 7 54 101 92 112 139 143 141 140 136 126 121 122 113 128 204 240 249 262 263 281 283 254 250 277 299 311 320 323 326 327 327 328
54 344 6 27 17 349 51 39 17 6 41 29 355 358 21 63 50 316 356 9 1 7 126 136 117 116 124 123 123 122 118 115 103 89 90 113 194 254 268 274 271 270 265 265 271 290 304 312 314 315 316 317 319 319
76 27 43 338 13 30 107 48 50 45 349 347 314 31 74 88 242 343 351 355 0 35 140 141 118 121 133 126 116 102 96 102 96 58 62 80 77 99 179 210 249 270 275 283 290 297 304 308 310 311 311 311 313 314
35 354 353 349 33 56 41 25 54 43 1 5 8 55 43 50 6 0 359 7 28 68 119 144 112 110 122 108 97 89 79 77 61 58 61 92 105 106 110 96 329 301 300 302 305 308 308 308 308 307 306 307 307 307
2 358 354 4 31 42 8 20 3 350 29 43 80 94 82 78 50 38 29 24 31 56 90 112 125 99 99 89 94 100 74 8 2 5 67 120 88 311 307 307 307 306 306 307 308 306 304 302 301 299 298 299 300 301
351 356 5 21 80 24 2 359 42 73 81 68 78 98 119 119 52 28 23 22 28 41 62 70 60 181 297 225 79 59 61 62 58 24 359 339 321 309 305 307 308 308 308 306 305 304 304 303 304 304 303 304 304 305
351 11 4 12 352 13 21 18 39 62 62 60 45 61 75 77 57 15 13 23 31 35 37 26 7 4 338 284 275 278 139 107 46 360 342 327 318 314 310 307 305 302 302 303 304 304 303 302 302 303 303 303 303 304
340 354 354 333 344 32 360 357 65 82 62 61 43 49 56 70 78 14 37 40 45 46 45 43 38 25 8 4 122 137 286 315 318 319 317 316 314 312 310 308 306 305 304 303 301 300 299 298 297 297 297 297 298 298
Wind_Speed_850mb
55 53 47 52 48 48 52 49 52 55 52 50 47 43 38 49 47 46 47 41 42 19 21 22 34 20 22 27 8 19 12 5 4 6 8 8 6 11 1 7 9 13 11 10 3 4 14 6 11 12 9 1 9 28
53 45 40 45 46 49 48 52 50 45 45 51 58 47 44 48 48 41 49 47 54 31 13 28 52 38 34 32 36 47 5 13 22 6 4 5 4 2 8 7 8 4 14 8 13 10 4 21 18 22 26 31 32 38
49 63 60 52 44 43 49 46 45 47 48 47 48 54 49 48 56 57 58 47 44 41 31 50 56 56 54 48 34 24 23 19 18 19 9 6 7 8 9 10 5 11 29 6 6 15 34 63 61 66 65 61 58 57
53 50 48 46 62 55 47 44 45 47 48 55 56 53 51 58 53 55 69 59 53 19 9 26 34 44 54 64 63 59 40 26 30 31 9 7 6 20 10 16 12 22 7 16 18 22 47 59 67 69 70 74 73 68
55 55 52 51 49 43 44 56 47 44 44 49 48 48 50 51 49 47 50 71 61 48 6 16 32 42 35 53 67 74 66 47 23 13 8 10 12 5 7 4 18 48 36 22 24 47 43 49 63 62 56 56 54 52
55 52 52 49 48 46 47 46 45 44 47 52 48 48 49 47 47 44 41 70 73 84 21 10 25 30 38 40 56 63 65 55 43 23 13 14 38 20 9 12 29 58 59 62 52 69 68 72 72 71 65 52 56 63
57 52 50 45 43 47 49 49 48 44 42 43 44 44 48 47 49 52 15 13 41 76 23 6 6 27 44 43 49 47 48 39 39 26 18 25 25 24 11 24 41 54 58 63 73 63 56 62 47 54 57 51 49 47
43 44 46 46 46 47 42 47 48 46 44 42 41 43 43 48 49 61 72 64 20 55 13 6 6 5 36 21 18 38 27 37 32 25 12 15 11 14 12 28 50 63 68 71 76 66 66 64 56 51 49 50 48 44
41 44 46 46 47 46 47 46 43 42 41 39 40 39 39 48 56 59 51 60 62 39 8 6 10 9 34 17 16 23 25 8 18 9 12 14 8 13 18 42 60 67 58 66 55 46 45 44 42 39 38 40 40 39
40 38 38 40 41 41 43 41 38 38 37 36 33 26 18 42 50 34 32 32 48 32 28 7 23 8 27 22 18 17 15 6 7 14 14 11 20 62 62 76 62 55 50 45 38 44 43 39 36 38 39 36 34 34
31 33 35 37 37 36 36 36 35 31 30 34 24 25 24 13 47 31 21 18 15 9 21 20 46 10 24 8 9 22 7 6 7 9 16 7 8 29 72 64 68 67 59 49 41 39 37 34 32 32 32 32 32 33
31 31 30 34 39 40 38 38 37 37 36 29 19 25 26 25 20 16 13 8 10 13 19 10 24 36 22 16 6 13 8 10 11 7 6 7 10 43 44 45 48 47 44 37 33 31 29 28 27 27 27 30 32 33
33 36 37 37 36 32 31 31 34 40 41 44 21 13 13 18 19 14 13 8 8 9 18 22 7 23 15 20 7 9 14 11 14 9 8 9 18 34 35 37 37 33 31 29 26 25 24 23 23 25 27 29 33 35
26 30 34 36 37 38 37 37 38 37 32 20 13 15 14 9 7 6 11 10 14 23 49 40 14 8 15 11 6 7 5 7 11 10 13 8 34 26 29 30 30 28 25 23 22 20 19 20 20 21 26 31 37 40
24 32 38 38 38 37 39 38 38 44 27 12 17 11 12 11 5 8 6 12 17 32 46 16 8 14 5 8 8 7 8 9 12 11 9 15 29 30 30 28 25 22 19 18 16 16 15 16 20 22 28 33 39 42
2 7 16 12 29 30 34 36 39 46 16 19 10 2 7 4 4 2 8 11 21 35 28 13 7 7 10 6 11 12 12 13 9 7 13 21 23 24 23 21 19 17 15 12 10 11 14 19 23 26 27 31 33 36
4 1 12 10 13 16 27 33 31 22 17 12 3 9 12 8 8 8 8 7 27 29 6 6 12 14 6 5 6 7 10 4 5 19 16 18 23 25 24 22 19 16 10 7 8 11 16 20 24 27 27 27 28 27
14 11 9 1 9 8 13 25 15 4 3 5 4 12 9 8 10 11 14 18 19 7 6 8 10 7 9 14 7 5 10 18 19 17 20 22 24 26 25 22 18 11 6 3 8 10 12 14 17 20 23 24 22 19
21 20 16 12 6 4 2 1 3 6 4 5 7 12 12 8 9 10 11 21 21 8 4 5 6 5 4 4 5 6 15 14 19 23 27 28 25 23 20 16 11 7 4 2 0 2 6 10 14 17 20 21 21 20
15 29 26 9 11 6 6 6 6 7 4 5 3 6 10 7 5 8 7 11 15 7 5 4 3 5 5 5 8 8 13 18 29 36 27 27 24 19 16 12 9 8 8 7 6 5 6 9 13 15 16 17 18 19
26 26 20 10 11 8 9 7 10 7 7 7 3 6 6 8 9 9 5 7 5 4 3 7 7 7 10 12 15 20 25 27 22 12 19 29 24 17 13 13 13 13 11 9 4 2 5 9 10 12 13 15 16 16
6 12 13 11 7 8 11 11 9 6 6 6 6 7 8 4 8 8 7 5 8 5 4 3 7 11 11 13 17 19 20 17 12 11 13 16 26 21 18 18 16 12 8 3 1 4 6 7 9 10 11 13 14 16
14 10 8 8 8 9 5 8 6 6 5 1 3 5 5 4 6 5 3 6 5 8 3 2 9 11 12 13 15 16 15 14 16 17 20 22 23 25 22 17 11 6 2 1 4 4 5 5 6 8 10 13 15 16
10 8 12 11 16 4 4 7 6 6 5 5 4 5 3 3 7 1 4 7 15 13 4 7 11 12 12 13 14 16 18 19 21 26 27 24 23 19 13 7 3 2 3 3 3 2 2 3 7 10 12 14 16 17
6 20 14 12 14 9 10 6 7 5 5 5 3 4 4 9 2 5 4 6 19 12 4 7 8 7 8 11 17 21 24 25 24 24 21 15 11 9 6 3 1 2 4 5 4 4 4 7 10 12 14 16 17 19
15 18 11 8 9 7 6 5 7 6 4 4 5 3 7 3 2 6 3 18 13 12 7 7 8 6 11 16 21 23 21 19 16 14 11 5 2 3 4 4 4 4 5 7 8 7 9 13 15 16 17 19 22 27
11 9 14 15 7 4 5 6 3 4 8 7 5 7 5 7 6 4 14 24 18 11 7 14 14 12 17 19 17 15 13 10 7 7 5 2 1 2 4 6 6 6 7 7 8 10 14 17 19 22 25 26 27 30
8 18 5 19 10 10 5 4 6 5 4 9 5 8 5 4 2 15 13 27 21 6 10 16 14 14 15 14 12 10 8 7 4 2 2 2 2 1 1 2 2 3 5 8 11 14 18 22 26 30 34 37 37 36
10 23 12 7 4 10 10 8 4 5 7 6 3 4 4 8 21 22 22 21 16 10 9 11 9 9 8 7 8 8 7 6 6 7 6 6 5 6 6 3 1 6 10 13 17 22 27 33 37 43 47 51 53 55
15 26 11 8 6 7 6 7 3 6 5 6 5 9 14 22 43 46 31 20 14 9 7 5 4 5 6 6 6 4 1 1 2 3 2 4 2 2 6 9 12 16 21 26 30 33 37 42 46 48 53 56 58 60
17 17 7 6 3 6 10 11 6 8 7 8 11 10 9 7 20 52 57 38 16 11 7 4 3 1 1 0 1 1 2 3 3 3 4 5 7 10 15 19 24 29 34 39 44 48 51 54 55 56 57 57 56 56
15 12 6 8 5 9 11 14 5 5 6 6 9 7 7 9 12 36 55 45 29 15 10 8 5 5 4 5 4 2 3 6 6 10 14 18 21 25 29 33 36 40 43 47 50 52 53 55 57 57 58 59 58 56
9 11 7 7 3 5 15 13 3 5 8 7 10 11 11 10 11 35 36 52 54 50 39 28 21 14 9 3 5 9 3 16 25 34 39 43 45 47 48 48 49 51 54 56 57 56 57 58 60 60 60 60 60 59
Wind_Direction_850mb
239 239 243 233 230 229 229 230 232 231 232 234 235 235 237 229 226 216 226 225 208 208 234 213 210 191 171 187 143 145 106 208 165 179 163 203 175 212 216 225 177 156 165 215 174 224 280 142 123 171 219 339 239 202
245 246 243 243 242 240 240 238 227 237 240 236 229 228 237 241 238 233 240 243 217 226 239 219 226 217 214 216 198 168 166 152 173 153 186 146 168 176 169 230 158 257 202 196 174 203 190 209 229 238 275 275 261 253
239 241 239 241 245 246 242 241 239 235 235 241 244 233 233 239 237 232 235 240 229 234 252 242 238 237 227 210 208 185 217 186 192 185 170 201 199 142 179 229 251 231 234 216 282 246 259 268 265 268 277 284 281 280
238 233 227 235 237 238 244 244 243 242 241 240 240 239 242 241 232 239 231 230 230 224 246 260 252 236 239 227 226 218 223 214 223 208 173 202 191 210 215 229 189 215 133 231 255 251 257 265 267 270 273 274 277 279
242 242 239 235 233 235 235 239 245 249 249 250 245 236 239 239 237 240 239 233 229 207 225 241 258 245 238 220 223 223 223 221 211 197 209 214 219 247 225 240 232 230 234 238 250 255 254 267 277 277 267 275 279 282
238 240 240 241 241 238 237 238 240 242 245 246 247 244 242 242 240 241 233 238 240 230 230 220 231 231 226 210 220 219 223 217 209 201 209 224 234 204 216 230 227 237 241 246 253 261 263 272 277 278 277 278 280 285
236 237 239 240 246 247 243 240 240 242 243 243 243 247 240 241 236 228 222 243 221 219 220 203 201 202 202 204 212 217 215 210 213 221 218 223 225 218 244 248 248 253 254 252 258 263 267 270 267 270 271 275 277 274
234 236 238 243 241 245 247 240 238 241 245 249 249 247 248 238 244 238 239 241 242 198 246 200 145 150 181 168 189 202 202 210 206 219 221 220 221 222 249 244 256 257 255 260 265 265 263 267 269 269 273 276 276 273
237 239 238 239 240 239 236 240 239 241 245 250 252 250 250 236 232 239 236 236 243 222 210 218 157 218 173 157 168 175 196 194 205 210 221 191 212 224 224 242 246 250 249 254 259 257 260 263 268 270 271 269 268 268
231 230 236 239 242 240 237 236 236 240 243 245 242 224 227 228 224 231 212 204 200 203 208 192 177 187 169 162 175 159 189 208 196 219 179 209 231 237 246 252 259 263 260 258 258 260 264 263 264 269 270 269 264 259
219 225 231 232 236 234 234 234 234 234 235 228 219 222 222 214 188 191 207 198 171 195 182 192 200 146 176 146 177 197 173 191 204 244 174 215 238 229 243 249 255 259 259 258 259 261 267 272 272 266 266 261 258 261
234 236 234 230 226 230 229 229 227 224 218 220 222 221 193 196 220 201 176 187 190 184 176 170 192 195 168 161 156 179 193 187 219 137 146 240 222 236 238 232 232 240 247 254 258 260 260 258 257 254 252 256 261 265
232 235 238 230 222 222 228 229 231 225 226 230 228 223 205 181 230 189 177 147 169 158 158 154 152 155 150 180 180 179 206 207 109 181 221 221 195 218 216 222 227 234 239 243 247 251 253 250 250 253 258 264 269 275
239 238 234 229 228 230 229 228 231 223 214 215 210 198 213 189 218 173 179 177 167 166 170 166 132 156 165 180 180 215 159 126 196 209 222 223 216 213 210 214 222 229 229 235 235 233 237 245 253 265 273 279 285 288
244 245 238 236 235 236 233 233 229 217 225 241 186 226 194 152 124 141 140 126 152 178 148 139 118 149 166 208 188 106 177 217 205 216 212 177 181 192 202 211 213 215 219 222 223 231 244 269 283 289 294 297 297 297
197 260 152 153 200 224 231 231 223 219 229 203 247 282 353 65 87 95 168 140 156 155 141 118 140 184 214 202 175 194 170 213 228 203 152 158 162 175 187 188 191 192 194 203 236 272 295 304 307 312 316 312 310 309
30 171 341 280 242 255 239 222 215 217 218 166 137 162 131 112 111 127 139 163 160 162 161 156 189 199 130 212 214 181 205 216 109 129 144 158 164 166 168 164 166 171 184 225 274 300 316 321 324 325 325 326 325 323
18 7 343 85 253 250 223 198 214 198 124 75 166 149 143 124 119 148 164 166 166 218 171 188 119 192 199 183 209 196 123 125 121 143 143 146 157 161 160 156 159 167 184 272 308 323 333 335 337 340 343 342 338 334
313 307 306 305 251 225 146 69 155 110 84 31 89 124 121 136 141 160 183 185 190 191 294 230 197 195 199 55 32 59 142 147 156 147 146 149 156 159 157 154 161 171 175 180 313 351 12 9 359 354 353 350 348 341
232 259 275 271 207 193 111 61 85 76 82 92 100 90 103 116 94 93 113 143 162 154 246 235 17 39 48 115 118 135 160 150 147 139 150 161 163 167 165 161 160 155 154 145 122 73 29 11 7 359 354 354 353 349
220 230 264 202 163 116 96 78 59 85 102 100 109 68 52 71 54 50 54 117 138 70 72 52 64 91 117 127 132 128 131 140 139 157 179 173 172 171 164 158 155 150 140 125 104 36 355 352 345 344 349 353 353 352
192 156 146 146 99 82 80 62 96 92 86 80 43 54 47 40 33 13 355 26 60 54 41 65 126 127 119 121 126 133 131 134 141 142 150 158 166 162 159 149 143 141 139 136 329 330 330 330 338 345 353 355 355 357
126 124 82 68 93 61 41 68 69 50 90 167 101 67 22 37 357 9 68 52 57 15 342 155 159 149 144 138 131 129 129 129 133 133 132 139 137 132 136 138 139 141 139 355 313 312 315 330 344 355 351 350 351 352
85 58 39 44 37 63 59 43 54 77 83 44 62 103 53 340 328 129 72 32 4 2 36 137 140 130 136 135 133 135 136 133 135 131 131 134 128 125 127 134 148 218 266 268 282 270 292 331 339 339 341 347 350 354
82 11 20 14 21 33 39 24 8 43 65 354 47 91 351 343 56 62 54 349 355 3 42 136 133 137 158 155 142 136 137 139 136 129 124 125 126 130 146 172 220 274 272 249 245 255 297 322 328 332 337 340 342 344
67 8 41 339 4 50 346 49 31 23 2 62 43 321 348 322 76 57 1 344 354 7 54 101 92 112 139 143 141 140 136 126 121 122 113 128 204 240 249 262 263 281 283 254 250 277 299 311 320 323 326 327 327 328
54 344 6 27 17 349 51 39 17 6 41 29 355 358 21 63 50 316 356 9 1 7 126 136 117 116 124 123 123 122 118 115 103 89 90 113 194 254 268 274 271 270 265 265 271 290 304 312 314 315 316 317 319 319
76 27 43 338 13 30 107 48 50 45 349 347 314 31 74 88 242 343 351 355 0 35 140 141 118 121 133 126 116 102 96 102 96 58 62 80 77 99 179 210 249 270 275 283 290 297 304 308 310 311 311 311 313 314
35 354 353 349 33 56 41 25 54 43 1 5 8 55 43 50 6 0 359 7 28 68 119 144 112 110 122 108 97 89 79 77 61 58 61 92 105 106 110 96 329 301 300 302 305 308 308 308 308 307 306 307 307 307
2 358 354 4 31 42 8 20 3 350 29 43 80 94 82 78 50 38 29 24 31 56 90 112 125 99 99 89 94 100 74 8 2 5 67 120 88 311 307 307 307 306 306 307 308 306 304 302 301 299 298 299 300 301
351 356 5 21 80 24 2 359 42 73 81 68 78 98 119 119 52 28 23 22 28 41 62 70 60 181 297 225 79 59 61 62 58 24 359 339 321 309 305 307 308 308 308 306 305 304 304 303 304 304 303 304 304 305
351 11 4 12 352 13 21 18 39 62 62 60 45 61 75 77 57 15 13 23 31 35 37 26 7 4 338 284 275 278 139 107 46 360 342 327 318 314 310 307 305 302 302 303 304 304 303 302 302 303 303 303 303 304
340 354 354 333 344 32 360 357 65 82 62 61 43 49 56 70 78 14 37 40 45 46 45 43 38 25 8 4 122 137 286 315 318 319 317 316 314 312 310 308 306 305 304 303 301 300 299 298 297 297 297 297 298 298